TimeCST,TemperatureF,Dew PointF,Humidity,Sea Level PressureIn,VisibilityMPH,Wind Direction,Wind SpeedMPH,Gust SpeedMPH,PrecipitationIn,Events,Conditions,WindDirDegrees,DateUTC
12:53 AM,21.9,18.0,85,30.74,8.0,Calm,Calm,-,N/A,,Clear,0,2013-11-13 06:53:00
1:53 AM,23.0,18.0,81,30.73,10.0,Calm,Calm,-,N/A,,Clear,0,2013-11-13 07:53:00
2:53 AM,21.9,17.1,82,30.74,9.0,SW,3.5,-,N/A,,Clear,230,2013-11-13 08:53:00
3:53 AM,21.0,17.1,85,30.71,9.0,Calm,Calm,-,N/A,,Clear,0,2013-11-13 09:53:00
4:53 AM,21.0,16.0,81,30.69,10.0,Calm,Calm,-,N/A,,Clear,0,2013-11-13 10:53:00
5:53 AM,19.0,16.0,88,30.68,8.0,South,4.6,-,N/A,,Clear,180,2013-11-13 11:53:00
6:53 AM,19.9,15.1,81,30.67,10.0,SSE,4.6,-,N/A,,Clear,160,2013-11-13 12:53:00
7:53 AM,26.1,18.0,71,30.65,6.0,South,9.2,-,N/A,,Haze,170,2013-11-13 13:53:00
8:53 AM,32.0,21.0,64,30.65,10.0,South,8.1,-,N/A,,Clear,190,2013-11-13 14:53:00
9:53 AM,39.0,18.0,43,30.63,10.0,SSW,9.2,-,N/A,,Clear,200,2013-11-13 15:53:00
10:53 AM,43.0,12.9,30,30.61,10.0,SSW,9.2,-,N/A,,Clear,200,2013-11-13 16:53:00
11:53 AM,45.0,12.9,27,30.57,10.0,SW,9.2,-,N/A,,Clear,220,2013-11-13 17:53:00
12:53 PM,48.9,14.0,25,30.52,10.0,SSW,10.4,18.4,N/A,,Clear,210,2013-11-13 18:53:00
1:53 PM,51.1,12.9,22,30.48,10.0,South,11.5,-,N/A,,Clear,190,2013-11-13 19:53:00
2:53 PM,53.1,14.0,21,30.44,10.0,South,10.4,-,N/A,,Clear,190,2013-11-13 20:53:00
3:53 PM,53.1,12.9,20,30.42,10.0,SSW,13.8,-,N/A,,Clear,200,2013-11-13 21:53:00
4:53 PM,50.0,14.0,24,30.38,10.0,South,12.7,-,N/A,,Clear,170,2013-11-13 22:53:00
5:53 PM,46.0,17.1,31,30.37,10.0,South,9.2,-,N/A,,Clear,180,2013-11-13 23:53:00
6:53 PM,43.0,18.0,37,30.37,10.0,South,9.2,-,N/A,,Clear,180,2013-11-14 00:53:00
7:53 PM,43.0,19.0,38,30.36,10.0,South,10.4,-,N/A,,Clear,190,2013-11-14 01:53:00
8:53 PM,41.0,21.0,45,30.34,10.0,South,9.2,-,N/A,,Clear,180,2013-11-14 02:53:00
9:53 PM,41.0,23.0,49,30.32,10.0,South,11.5,-,N/A,,Clear,190,2013-11-14 03:53:00
10:53 PM,41.0,24.1,51,30.30,10.0,South,11.5,-,N/A,,Clear,180,2013-11-14 04:53:00
11:53 PM,41.0,23.0,49,30.29,10.0,South,11.5,-,N/A,,Clear,190,2013-11-14 05:53:00